[[{"header":{"parameterUnit":"m.s-1","parameterCategory":2,"la1":30.2992,"la2":30.254,"lo1":-89.0895,"lo2":-89.0443,"dy":0.0025,"dx":0.0025,"nx":19,"ny":19,"refTime":"2026-03-24T03:00:00:Z","depth":"0","parameterNumber":2,"parameterNumberName":"U-component_of_CURRENTS"},"data":[0,0,0,0.0873,0.0872,0.0843,0.0843,0.0885,0.0886,0,0,0,0,0,0,0,0,0,0,0,0.0886,0.0886,0.0873,0.0872,0.0843,0.0843,0.0885,0.0886,0,0,0,0,0,0,0,0,0,0,0,0.0886,0.0886,0.0886,0.0872,0.0843,0.0843,0.0885,0.0886,0,0,0,0,0,0,0,0,0,0,0.0904,0.0914,0.0886,0.0886,0.0872,0.0843,0.0843,0.0885,0.0886,0.0923,0,0.0922,0,0.0909,0.0891,0.0891,0,0,0,0.0867,0.0913,0.0899,0.0886,0.0872,0.0843,0.0854,0.0884,0.0886,0.0924,0.0923,0.0924,0.091,0.0891,0.0892,0.1068,0.1069,0,0,0.0868,0.0888,0.0898,0.09,0.0872,0.0855,0.0854,0.0884,0.0895,0.0923,0.0924,0.091,0.0892,0.0892,0.1067,0.1068,0,0,0,0.0877,0.0889,0.0872,0.0899,0.0889,0.0855,0.0853,0.0893,0.0886,0.0924,0.0911,0.0892,0.0893,0.1065,0.1067,0.1063,0,0,0,0.0877,0.0894,0.0873,0.0885,0.0888,0.0882,0.0862,0.0884,0.0886,0.091,0.0892,0.0894,0.1064,0.1066,0.106,0.1035,0,0,0,0.0886,0.0895,0.0892,0.0886,0.0875,0.0881,0.0874,0.0883,0.0879,0.0891,0.0894,0.1063,0.1066,0.1057,0.1032,0.1043,0,0,0,0.0906,0.0914,0.0893,0.0911,0.0875,0.0892,0.0874,0.0895,0.091,0.0893,0.1064,0.1067,0.1056,0.103,0.1041,0.0957,0.0958,0,0,0.0925,0.0917,0.0929,0.0909,0.0928,0.0895,0.0936,0.0946,0.0978,0.1055,0.1058,0.1061,0.1031,0.1042,0.1143,0.1137,0,0,0,0.0942,0.0948,0.0954,0.0959,0.0961,0.0964,0.097,0.0999,0.1072,0.1002,0.1128,0.1111,0.1116,0.1065,0.1063,0.0849,0.1082,0.1082,0.1081,0.0963,0.0968,0.0989,0.0996,0.101,0.1025,0.1052,0.1105,0.1118,0.118,0.1158,0.1231,0.1181,0.1177,0.096,0.123,0.123,0.123,0.123,0.0991,0.101,0.101,0.1031,0.1037,0.1065,0.1125,0.1148,0.1225,0.1235,0.1241,0.1127,0.1173,0.0943,0.1231,0.1231,0.123,0.123,0.123,0.1013,0.1025,0.1025,0.1046,0.1054,0.1072,0.1095,0.1156,0.1219,0.1241,0.1183,0.1182,0.0931,0.1242,0.1242,0.1242,0.1242,0.1242,0.1242,0.104,0.1042,0.1053,0.1063,0.105,0.105,0.1081,0.1103,0.1135,0.1173,0.1173,0.0941,0.1234,0.1177,0.1241,0.1241,0.1241,0.1241,0.1242,0.1108,0.1082,0.1094,0.1081,0.1045,0.1002,0.102,0.101,0.1047,0.1047,0.0841,0.1147,0.1131,0.1134,0.1077,0.1111,0.1111,0.1111,0.1111,0.1139,0.1136,0.1115,0.1077,0.1033,0.0979,0.0894,0.0867,0.0779,0.0688,0.0668,0.0614,0.0629,0.0581,0.0596,0.0528,0.0422,0.0421,0.042,0.1186,0.1161,0.1144,0.1085,0.1014,0.0935,0.0819,0.0662,0.0472,0.0372,0.0384,0.0413,0.0318,0.0359,0.0275,0.0312,0.02,0,0]},{"header":{"parameterUnit":"m.s-1","parameterCategory":2,"la1":30.2992,"la2":30.254,"lo1":-89.0895,"lo2":-89.0443,"dy":0.0025,"dx":0.0025,"nx":19,"ny":19,"refTime":"2026-03-24T03:00:00:Z","depth":"0","parameterNumber":3,"parameterNumberName":"V-component_of_CURRENTS"},"data":[0,0,0,0.0339,0.034,0.0393,0.0394,0.0528,0.0529,0,0,0,0,0,0,0,0,0,0,0,0.0331,0.0331,0.0339,0.034,0.0393,0.0394,0.0528,0.0529,0,0,0,0,0,0,0,0,0,0,0,0.0331,0.0331,0.0332,0.034,0.0393,0.0394,0.0527,0.0472,0,0,0,0,0,0,0,0,0,0,0.0412,0.0382,0.0331,0.0332,0.0341,0.0393,0.0394,0.0469,0.0475,0.0521,0,0.0534,0,0.0531,0.0539,0.054,0,0,0,0.0345,0.0376,0.04,0.0332,0.0341,0.0393,0.0371,0.0472,0.048,0.0531,0.0536,0.054,0.0533,0.054,0.0541,0.082,0.0822,0,0,0.0342,0.0333,0.0395,0.0405,0.0364,0.0369,0.0372,0.0476,0.0484,0.0537,0.0543,0.0536,0.0541,0.0542,0.0818,0.082,0,0,0,0.033,0.0331,0.0351,0.0401,0.0403,0.037,0.0374,0.0479,0.0489,0.0544,0.0537,0.0542,0.0544,0.0816,0.0819,0.0862,0,0,0,0.0329,0.0324,0.035,0.0344,0.0401,0.0429,0.0375,0.0482,0.0493,0.0537,0.0542,0.0545,0.0814,0.0817,0.0856,0.0855,0,0,0,0.0327,0.0323,0.0334,0.0343,0.0364,0.0427,0.0442,0.0484,0.0489,0.054,0.0546,0.0812,0.0817,0.0851,0.0848,0.0855,0,0,0,0.0309,0.037,0.0334,0.0409,0.0363,0.0481,0.0441,0.0533,0.0589,0.0543,0.0814,0.0819,0.085,0.0843,0.0852,0.0784,0.0795,0,0,0.0387,0.0379,0.043,0.0399,0.0503,0.0473,0.0612,0.0658,0.0676,0.078,0.0786,0.0858,0.0847,0.0854,0.1049,0.1051,0,0,0,0.0456,0.0484,0.0519,0.0557,0.0616,0.0672,0.0714,0.0754,0.0856,0.0727,0.094,0.0933,0.0934,0.089,0.0894,0.0848,0.084,0.0839,0.0839,0.0517,0.0549,0.062,0.0671,0.0741,0.083,0.0899,0.0967,0.0968,0.1044,0.103,0.1149,0.111,0.111,0.1067,0.1112,0.1113,0.1113,0.1113,0.0599,0.0625,0.0661,0.0738,0.08,0.0904,0.105,0.1082,0.1186,0.1172,0.117,0.1016,0.1116,0.1069,0.1117,0.1116,0.1116,0.1115,0.1115,0.0604,0.0618,0.065,0.0717,0.082,0.0934,0.1041,0.1148,0.121,0.1248,0.1165,0.1163,0.1059,0.1234,0.1235,0.1235,0.1235,0.1235,0.1235,0.0574,0.061,0.0629,0.071,0.0768,0.0873,0.1044,0.111,0.1184,0.1213,0.1212,0.1124,0.1185,0.1109,0.1236,0.1236,0.1236,0.1236,0.1236,0.0604,0.0576,0.0617,0.0657,0.0779,0.084,0.0986,0.1067,0.114,0.1153,0.1119,0.1191,0.1154,0.1151,0.1076,0.1187,0.1187,0.1187,0.1187,0.0595,0.0588,0.0619,0.0675,0.0758,0.0847,0.0869,0.0956,0.1041,0.1052,0.1077,0.1043,0.1047,0.1002,0.1002,0.0925,0.0995,0.0995,0.0995,0.0616,0.0614,0.0637,0.0656,0.0763,0.0803,0.0762,0.0781,0.0917,0.0986,0.1033,0.1041,0.0991,0.1,0.0927,0.0931,0.0803,0,0]}],[{"header":{"parameterUnit":"m.s-1","parameterCategory":2,"la1":30.2992,"la2":30.254,"lo1":-89.0895,"lo2":-89.0443,"dy":0.0025,"dx":0.0025,"nx":19,"ny":19,"refTime":"2026-03-24T03:00:00:Z","depth":"2","parameterNumber":2,"parameterNumberName":"U-component_of_CURRENTS"},"data":[0,0,0,0.1024,0.1023,0.0977,0.0976,0.103,0.1031,0,0,0,0,0,0,0,0,0,0,0,0.1042,0.1042,0.1024,0.1023,0.0977,0.0976,0.103,0.1031,0,0,0,0,0,0,0,0,0,0,0,0.1042,0.1042,0.1042,0.1023,0.0977,0.0976,0.103,0.1036,0,0,0,0,0,0,0,0,0,0,0.1067,0.1078,0.1042,0.1042,0.1023,0.0977,0.0976,0.1035,0.1036,0.1085,0,0.1079,0,0.1061,0.1038,0.1038,0,0,0,0.1019,0.1077,0.1056,0.1042,0.1022,0.0977,0.0997,0.1034,0.1035,0.1087,0.1079,0.108,0.1061,0.1039,0.1039,0.1213,0.1214,0,0,0.1022,0.1044,0.1055,0.1057,0.1014,0.0998,0.0995,0.1034,0.1045,0.1079,0.1081,0.1062,0.1039,0.104,0.1211,0.1213,0,0,0,0.1032,0.1046,0.1022,0.1056,0.104,0.0997,0.0993,0.1043,0.1032,0.1081,0.1063,0.104,0.1041,0.121,0.1212,0.1201,0,0,0,0.1033,0.1052,0.1024,0.1038,0.1039,0.1028,0.1002,0.1029,0.1033,0.1063,0.104,0.1042,0.1209,0.1211,0.1198,0.1187,0,0,0,0.1043,0.1053,0.1046,0.1039,0.1019,0.1026,0.1017,0.1029,0.1023,0.1038,0.1042,0.1208,0.1211,0.1196,0.1184,0.1182,0,0,0,0.107,0.1082,0.1047,0.1066,0.1019,0.1056,0.1016,0.1047,0.1067,0.104,0.1209,0.1212,0.1195,0.1182,0.1181,0.1137,0.114,0,0,0.1101,0.1087,0.1099,0.1066,0.1082,0.1062,0.1098,0.1096,0.1129,0.12,0.1203,0.1199,0.1184,0.1182,0.1298,0.1295,0,0,0,0.112,0.1103,0.1115,0.1106,0.1134,0.1117,0.1128,0.1146,0.1196,0.1152,0.1259,0.1251,0.1248,0.1223,0.1222,0.1225,0.1225,0.1224,0.1224,0.1111,0.1116,0.1125,0.1117,0.1156,0.1172,0.118,0.1213,0.1253,0.1287,0.1286,0.1339,0.1316,0.1314,0.1343,0.1343,0.1343,0.1343,0.1343,0.1082,0.1079,0.1092,0.1108,0.113,0.1179,0.1229,0.124,0.1304,0.1331,0.1329,0.1269,0.1311,0.1343,0.1343,0.1343,0.1343,0.1343,0.1343,0.1042,0.1054,0.1056,0.109,0.1123,0.1181,0.1217,0.1267,0.131,0.1318,0.1312,0.1312,0.1286,0.1339,0.1339,0.1339,0.1339,0.1339,0.1339,0.1023,0.1026,0.1054,0.1079,0.1127,0.1176,0.1233,0.1255,0.1294,0.1309,0.1309,0.1338,0.1338,0.1289,0.1339,0.1339,0.1339,0.1339,0.1339,0.1019,0.1039,0.1087,0.1125,0.1176,0.1188,0.1214,0.123,0.1249,0.1249,0.1289,0.1291,0.1283,0.1285,0.1236,0.127,0.127,0.127,0.127,0.1041,0.104,0.1138,0.1195,0.1221,0.1204,0.1174,0.1055,0.1058,0.0979,0.099,0.0965,0.0976,0.0949,0.0959,0.0902,0.0849,0.0847,0.0846,0.1062,0.11,0.1184,0.123,0.1254,0.1214,0.1145,0.0823,0.0585,0.082,0.0817,0.1261,0.1258,0.1262,0.125,0.1254,0.1175,0,0]},{"header":{"parameterUnit":"m.s-1","parameterCategory":2,"la1":30.2992,"la2":30.254,"lo1":-89.0895,"lo2":-89.0443,"dy":0.0025,"dx":0.0025,"nx":19,"ny":19,"refTime":"2026-03-24T03:00:00:Z","depth":"2","parameterNumber":3,"parameterNumberName":"V-component_of_CURRENTS"},"data":[0,0,0,0.013,0.0133,0.0262,0.0262,0.0334,0.0334,0,0,0,0,0,0,0,0,0,0,0,0.0097,0.0099,0.013,0.0133,0.0262,0.0262,0.0334,0.0334,0,0,0,0,0,0,0,0,0,0,0,0.0097,0.0098,0.01,0.0134,0.0262,0.0262,0.0334,0.0257,0,0,0,0,0,0,0,0,0,0,0.0143,0.0118,0.0098,0.01,0.0135,0.0262,0.0262,0.0254,0.0262,0.0252,0,0.0297,0,0.0316,0.0338,0.0338,0,0,0,0.0123,0.0112,0.0159,0.0101,0.0136,0.0261,0.0201,0.0259,0.0268,0.0262,0.0298,0.0301,0.0317,0.0338,0.0339,0.0305,0.0304,0,0,0.0116,0.0101,0.0154,0.0166,0.02,0.0197,0.0205,0.0265,0.0277,0.0298,0.0303,0.0318,0.0339,0.0339,0.0306,0.0305,0,0,0,0.0102,0.0096,0.0143,0.0162,0.0193,0.0201,0.021,0.0274,0.0295,0.0304,0.0319,0.0339,0.034,0.0307,0.0306,0.0205,0,0,0,0.0098,0.0089,0.0141,0.013,0.0193,0.0244,0.0217,0.0291,0.0299,0.0318,0.0339,0.034,0.0308,0.0306,0.0209,0.0195,0,0,0,0.0086,0.0086,0.0114,0.0129,0.019,0.0244,0.0268,0.0294,0.0307,0.0338,0.034,0.0308,0.0306,0.0213,0.0201,0.0208,0,0,0,0.0046,0.0086,0.0115,0.015,0.0189,0.0222,0.0268,0.0333,0.0366,0.0339,0.0307,0.0306,0.0215,0.0204,0.0211,0.0406,0.0409,0,0,0.0065,0.0088,0.0103,0.0131,0.0122,0.0202,0.0156,0.0253,0.0319,0.0282,0.0282,0.0208,0.0201,0.0209,0.03,0.0307,0,0,0,0.0085,0.0057,0.0061,0.0078,0.0138,0.0106,0.0186,0.0193,0.0212,0.0331,0.0199,0.0198,0.0207,0.033,0.0333,0.0297,0.0297,0.0297,0.0298,-0.0013,0.0019,-0.0001,-0.0003,0.0035,0.0057,0.004,0.0061,0.0129,0.0121,0.0107,0.0036,0.0162,0.0169,0.0084,0.0083,0.0083,0.0083,0.0082,-0.0121,-0.0127,-0.0089,-0.0111,-0.0079,-0.007,-0.0072,-0.0048,-0.0085,-0.0025,-0.0012,0.0206,0.0168,0.0074,0.0076,0.0077,0.0078,0.0078,0.0079,-0.0237,-0.0214,-0.0231,-0.02,-0.0176,-0.013,-0.0086,-0.0105,-0.0101,-0.0136,0.009,0.0095,0.0018,-0.0089,-0.0089,-0.0089,-0.0089,-0.0089,-0.0089,-0.0302,-0.0304,-0.0321,-0.0316,-0.0254,-0.0172,-0.0104,-0.0067,0.0012,0.0024,0.0027,-0.0019,-0.0014,0.001,-0.009,-0.009,-0.009,-0.009,-0.009,-0.0396,-0.0371,-0.039,-0.0379,-0.0308,-0.0225,-0.0151,0.0056,0.0064,0.0135,0.012,0.0115,0.0188,0.0188,0.0218,0.0177,0.0177,0.0178,0.0178,-0.0423,-0.0429,-0.041,-0.0384,-0.0338,-0.0256,-0.0088,0.01,0.0238,0.0301,0.0295,0.0348,0.0337,0.042,0.0415,0.045,0.0469,0.0469,0.0469,-0.0459,-0.0445,-0.0422,-0.039,-0.0338,-0.0234,-0.0021,0.0207,0.0406,0.0468,0.022,0.0221,0.0288,0.0274,0.0395,0.0389,0.0444,0,0]}],[{"header":{"parameterUnit":"m.s-1","parameterCategory":2,"la1":30.2992,"la2":30.254,"lo1":-89.0895,"lo2":-89.0443,"dy":0.0025,"dx":0.0025,"nx":19,"ny":19,"refTime":"2026-03-24T03:00:00:Z","depth":"4","parameterNumber":2,"parameterNumberName":"U-component_of_CURRENTS"},"data":[0,0,0,0.0157,0.0157,0.0174,0.0174,0.0212,0.0212,0,0,0,0,0,0,0,0,0,0,0,0.0165,0.0166,0.0157,0.0157,0.0174,0.0174,0.0212,0.0212,0,0,0,0,0,0,0,0,0,0,0,0.0165,0.0165,0.0166,0.0157,0.0174,0.0174,0.0212,0.0198,0,0,0,0,0,0,0,0,0,0,0.0182,0.0191,0.0165,0.0166,0.0157,0.0173,0.0174,0.0198,0.0199,0.0205,0,0.0209,0,0.02,0.0214,0.0214,0,0,0,0.0171,0.019,0.018,0.0166,0.0157,0.0173,0.017,0.0199,0.02,0.0207,0.0209,0.021,0.02,0.0214,0.0214,0.023,0.023,0,0,0.017,0.0182,0.0179,0.0181,0.0163,0.0169,0.017,0.02,0.0211,0.0209,0.0211,0.0201,0.0214,0.0214,0.023,0.023,0,0,0,0.0158,0.0182,0.0172,0.018,0.0175,0.0169,0.0171,0.021,0.0203,0.0211,0.0201,0.0214,0.0215,0.023,0.023,0.0244,0,0,0,0.0158,0.0173,0.0171,0.0181,0.0174,0.0192,0.0181,0.0202,0.0204,0.0201,0.0214,0.0215,0.023,0.023,0.0243,0.0242,0,0,0,0.0164,0.0174,0.0174,0.0181,0.0179,0.0191,0.0187,0.0202,0.0197,0.0214,0.0215,0.023,0.023,0.0243,0.0241,0.0262,0,0,0,0.018,0.017,0.0174,0.0167,0.0179,0.0173,0.0186,0.0205,0.0222,0.0214,0.023,0.023,0.0243,0.0241,0.0262,0.0177,0,0,0,0.0168,0.017,0.0163,0.0166,0.0151,0.0172,0.0179,0.0214,0.0221,0.0224,0.0224,0.0243,0.0241,0.0262,0.0175,0,0,0,0,0.0159,0.0153,0.0153,0.0148,0.0149,0.0165,0.0189,0.0209,0.0235,0.0226,0.0239,0.0236,0.025,0.0198,0.023,0.023,0.023,0.023,0.023,0.0165,0.0151,0.0131,0.0119,0.0132,0.0167,0.019,0.0217,0.023,0.0247,0.0245,0.0264,0.0209,0.0245,0.0245,0.0245,0.0245,0.0245,0.0245,0.0118,0.0076,0.0102,0.0072,0.01,0.0122,0.0184,0.0216,0.0252,0.0252,0.0265,0.0211,0.0246,0.0246,0.0246,0.0246,0.0246,0.0246,0.0245,0.008,0.0044,0.0042,0.0022,0.0061,0.0118,0.0161,0.022,0.0257,0.0272,0.0233,0.0274,0.0278,0.0292,0.0292,0.0292,0.0292,0.0292,0.0292,0.0001,-0.001,-0.0017,-0.0017,0.0019,0.0075,0.0164,0.0177,0.0233,0.0232,0.0284,0.0279,0.0278,0.028,0.0293,0.0293,0.0293,0.0293,0.0293,-0.0119,-0.0092,-0.0089,-0.0066,-0.0003,0.003,0.0118,0.0141,0.0162,0.0165,0.0213,0.0216,0.0205,0.0206,0.0205,0.0197,0.0195,0.0194,0,-0.0182,-0.0178,-0.0146,-0.0098,-0.0064,0.0,0.0008,0.0036,0.0093,0.0099,0.0144,0.0196,0.0199,0.0184,0.0183,0.0179,0,0,0,-0.0253,-0.0219,-0.0198,-0.0142,-0.0095,-0.0056,0.0002,0.0,0.0118,0.0077,0.0168,0.0175,0.0177,0.0297,0.0289,0.0287,0.0291,0,0]},{"header":{"parameterUnit":"m.s-1","parameterCategory":2,"la1":30.2992,"la2":30.254,"lo1":-89.0895,"lo2":-89.0443,"dy":0.0025,"dx":0.0025,"nx":19,"ny":19,"refTime":"2026-03-24T03:00:00:Z","depth":"4","parameterNumber":3,"parameterNumberName":"V-component_of_CURRENTS"},"data":[0,0,0,-0.0103,-0.0104,-0.0159,-0.0159,-0.0302,-0.0303,0,0,0,0,0,0,0,0,0,0,0,-0.0081,-0.0082,-0.0103,-0.0104,-0.0159,-0.0159,-0.0301,-0.0303,0,0,0,0,0,0,0,0,0,0,0,-0.0081,-0.0082,-0.0082,-0.0104,-0.0159,-0.0159,-0.0301,-0.0243,0,0,0,0,0,0,0,0,0,0,-0.0181,-0.0152,-0.0081,-0.0082,-0.0104,-0.0159,-0.0159,-0.0239,-0.0246,-0.0296,0,-0.03,0,-0.0307,-0.0314,-0.0314,0,0,0,-0.0108,-0.0145,-0.0158,-0.0082,-0.0105,-0.0158,-0.0135,-0.0242,-0.0251,-0.0306,-0.0302,-0.0307,-0.0309,-0.0315,-0.0316,-0.0454,-0.0454,0,0,-0.0105,-0.0098,-0.0152,-0.0163,-0.0115,-0.0133,-0.0137,-0.0247,-0.0257,-0.0302,-0.031,-0.0311,-0.0316,-0.0317,-0.0453,-0.0454,0,0,0,-0.0093,-0.0096,-0.0105,-0.0157,-0.0163,-0.0135,-0.0139,-0.0252,-0.0254,-0.0311,-0.0313,-0.0317,-0.0319,-0.0453,-0.0454,-0.0357,0,0,0,-0.0092,-0.0089,-0.0103,-0.0101,-0.016,-0.0199,-0.0142,-0.0246,-0.0259,-0.0312,-0.0317,-0.0321,-0.0453,-0.0453,-0.0359,-0.0304,0,0,0,-0.008,-0.0088,-0.0092,-0.01,-0.0122,-0.0197,-0.0205,-0.0248,-0.0261,-0.0315,-0.0321,-0.0453,-0.0453,-0.036,-0.0309,-0.0267,0,0,0,-0.0075,-0.0109,-0.0092,-0.0134,-0.0121,-0.0181,-0.0204,-0.0277,-0.0328,-0.0318,-0.0453,-0.0453,-0.0361,-0.0311,-0.027,-0.0266,0,0,0,-0.0122,-0.0115,-0.0141,-0.0127,-0.0164,-0.0174,-0.021,-0.0292,-0.0351,-0.0422,-0.0425,-0.0358,-0.0309,-0.0268,-0.031,0,0,0,0,-0.0159,-0.0161,-0.0179,-0.0185,-0.022,-0.02,-0.0272,-0.0295,-0.0349,-0.0382,-0.04,-0.0373,-0.0349,-0.0358,-0.0457,-0.0457,-0.0457,-0.0457,-0.0457,-0.0193,-0.0191,-0.02,-0.0189,-0.0213,-0.0239,-0.0236,-0.0275,-0.0351,-0.0362,-0.0325,-0.027,-0.0281,-0.037,-0.0369,-0.0369,-0.0369,-0.0368,-0.0368,-0.0197,-0.0172,-0.0156,-0.0158,-0.0136,-0.0152,-0.0175,-0.0205,-0.0212,-0.028,-0.0262,-0.0296,-0.036,-0.0361,-0.0362,-0.0363,-0.0364,-0.0365,-0.0365,-0.0174,-0.0149,-0.0142,-0.0091,-0.0057,-0.0068,-0.003,-0.0071,-0.0124,-0.0101,-0.0142,-0.0209,-0.018,-0.0106,-0.0106,-0.0105,-0.0105,-0.0105,-0.0104,-0.0125,-0.0111,-0.006,-0.0014,0.002,0.0057,0.0051,0.0045,-0.0009,-0.0034,-0.0083,-0.0182,-0.019,-0.0167,-0.0098,-0.0099,-0.01,-0.01,-0.0101,-0.0059,-0.0046,0.0013,0.0056,0.014,0.0146,0.0157,0.0121,0.0126,0.0105,-0.0003,-0.001,-0.0042,-0.0053,-0.0027,0.0088,0.0088,0.0089,0,0.0002,0.0011,0.0096,0.0158,0.0204,0.0205,0.0205,0.0183,0.0117,0.0108,0.0101,-0.0022,-0.0027,-0.0068,-0.0077,-0.0048,0,0,0,0.008,0.0079,0.0144,0.0188,0.0224,0.0208,0.0194,0.0173,0.0151,0.0137,0.0098,0.0095,-0.0021,-0.0079,-0.0143,-0.0154,-0.012,0,0]}]]